This demonstration page uses our WeatherBlox Daily Observations layout. Learn more.

Hourly Observations for July 30, 2015

Temp ( °F °C ) Dew Point ( °F °C ) Humidity (%) Winds ( mph kmh ) Pressure ( in mb ) Visibility ( mi km ) Precip ( " mm )
12:15 am 00:15 Clear 61 15.9 54 12.1 78 78 Calm 30.18 1022 10 16.0934 0 0
12:35 am 00:35 Clear 60 15.8 53 11.8 77 77 Calm 30.18 1022 10 16.0934 0 0
12:55 am 00:55 Clear 61 15.9 53 11.6 76 76 Calm 30.18 1022 10 16.0934 0 0
1:15 am 01:15 Clear 60 15.3 53 11.5 78 78 Calm 30.18 1022 10 16.0934 0 0
1:35 am 01:35 Clear 61 16 53 11.4 74 74 S 5 7 30.18 1022 10 16.0934 0 0
1:55 am 01:55 Clear 60 15.5 51 10.7 73 73 S 3 6 30.18 1022 10 16.0934 0 0
2:15 am 02:15 Clear 61 16.1 52 11 72 72 Calm 30.18 1022 10 16.0934 0 0
2:35 am 02:35 Clear 60 15.5 51 10.7 73 73 Calm 30.18 1022 10 16.0934 0 0
2:55 am 02:55 Clear 60 15.7 51 10.5 71 71 S 3 6 30.18 1022 10 16.0934 0 0
3:15 am 03:15 Clear 60 15.6 51 10.7 73 73 SSW 6 9 30.18 1022 10 16.0934 0 0
3:35 am 03:35 Clear 62 16.4 51 10.7 69 69 S 3 6 30.18 1022 10 16.0934 0 0
3:55 am 03:55 Clear 61 15.9 51 10.8 72 72 S 3 6 30.18 1022 10 16.0934 0 0
4:15 am 04:15 Clear 58 14.3 51 10.7 79 79 Calm 30.21 1023 10 16.0934 0 0
4:35 am 04:35 Clear 58 14.2 52 10.9 81 81 Calm 30.21 1023 10 16.0934 0 0
4:55 am 04:55 Clear 57 14.1 52 10.9 81 81 Calm 30.21 1023 10 16.0934 0 0
5:15 am 05:15 Clear 59 15.2 52 10.9 76 76 Calm 30.18 1022 10 16.0934 0 0
5:35 am 05:35 Clear 57 13.8 51 10.5 81 81 Calm 30.21 1023 10 16.0934 0 0
5:55 am 05:55 Clear 56 13.6 51 10.8 83 83 Calm 30.21 1023 10 16.0934 0 0
6:15 am 06:15 Clear 58 14.2 51 10.8 80 80 SSW 3 6 30.21 1023 10 16.0934 0 0
6:35 am 06:35 Sunny 60 15.3 54 12.2 82 82 SSW 5 7 30.18 1022 10 16.0934 0 0
6:55 am 06:55 Sunny 60 15.7 55 12.7 82 82 SSW 3 6 30.18 1022 10 16.0934 0 0
7:15 am 07:15 Sunny 60 15.4 54 12.4 82 82 Calm 30.18 1022 10 16.0934 0 0
7:35 am 07:35 Sunny 62 16.6 56 13.5 82 82 Calm 30.18 1022 10 16.0934 0 0
7:55 am 07:55 Sunny 64 17.9 58 14.3 80 80 Calm 30.18 1022 10 16.0934 0 0
8:15 am 08:15 Sunny 66 19.1 59 15 77 77 SSW 3 6 30.15 1021 10 16.0934 0 0
8:35 am 08:35 Sunny 69 20.7 60 15.4 72 72 SSW 6 9 30.18 1022 10 16.0934 0 0
8:55 am 08:55 Sunny 71 21.7 59 15.2 67 67 S 7 11 30.15 1021 10 16.0934 0 0
9:15 am 09:15 Sunny 72 22.2 60 15.6 66 66 S 8 13 30.15 1021 10 16.0934 0 0
9:35 am 09:35 Sunny 74 23.4 60 15.7 62 62 S 10 17 30.15 1021 10 16.0934 0 0
9:55 am 09:55 Sunny 75 24 61 16.1 61 61 S 12 19 30.15 1021 10 16.0934 0 0
10:15 am 10:15 Sunny 76 24.4 62 16.6 62 62 S 8 13 30.15 1021 10 16.0934 0 0
10:35 am 10:35 Sunny 78 25.3 63 17 60 60 SW 12 19 30.12 1020 10 16.0934 0 0
10:55 am 10:55 Sunny 78 25.5 63 17.4 61 61 S 10 17 30.12 1020 10 16.0934 0 0
11:15 am 11:15 Sunny 79 26 63 17.2 58 58 SSW 8 13 30.12 1020 10 16.0934 0 0
11:35 am 11:35 Sunny 80 26.5 63 17.1 56 56 SW 7 11 30.12 1020 10 16.0934 0 0
11:55 am 11:55 Sunny 81 27.3 63 17 53 53 SSW 7 11 30.09 1019 10 16.0934 0 0
12:15 pm 12:15 Sunny 82 27.5 63 17 53 53 SSW 9 15 30.09 1019 10 16.0934 0 0
12:35 pm 12:35 Partly Cloudy 82 27.8 62 16.6 51 51 SSW 7 11 30.09 1019 10 16.0934 0 0
12:55 pm 12:55 Partly Cloudy 83 28.2 62 16.8 50 50 SSW 10 17 30.09 1019 10 16.0934 0 0
1:15 pm 13:15 Sunny 83 28.5 62 16.8 49 49 S 7 11 30.06 1018 10 16.0934 0 0
1:35 pm 13:35 Sunny 83 28.3 62 16.8 50 50 SSE 9 15 30.09 1019 10 16.0934 0 0
1:55 pm 13:55 Sunny 84 28.7 63 17 49 49 SSW 7 11 30.06 1018 10 16.0934 0 0
2:15 pm 14:15 Sunny 85 29.3 63 17 47 47 S 6 9 30.06 1018 10 16.0934 0 0
2:35 pm 14:35 Sunny 85 29.3 62 16.7 47 47 S 6 9 30.03 1017 10 16.0934 0 0
2:55 pm 14:55 Sunny 85 29.6 62 16.8 46 46 S 7 11 30.03 1017 10 16.0934 0 0
3:15 pm 15:15 Sunny 86 29.9 62 16.8 45 45 SSE 6 9 30.03 1017 10 16.0934 0 0
3:35 pm 15:35 Sunny 86 30 62 16.9 45 45 S 8 13 30.03 1017 10 16.0934 0 0
3:55 pm 15:55 Sunny 87 30.5 61 16.2 42 42 S 7 11 30.03 1017 10 16.0934 0 0
4:15 pm 16:15 Partly Cloudy 85 29.3 61 16.3 45 45 SE 5 7 30.03 1017 10 16.0934 0 0
4:35 pm 16:35 Partly Cloudy 87 30.6 62 16.8 43 43 SW 5 7 30 1016 10 16.0934 0 0
4:55 pm 16:55 Partly Cloudy 85 29.5 62 16.5 45 45 SSE 5 7 30 1016 10 16.0934 0 0
5:15 pm 17:15 Partly Cloudy 86 30.1 62 16.6 44 44 SE 3 6 30 1016 10 16.0934 0 0
5:35 pm 17:35 Sunny 87 30.7 61 16.2 42 42 S 3 6 30 1016 10 16.0934 0 0
5:55 pm 17:55 Sunny 86 30.2 61 15.9 42 42 SSE 5 7 30 1016 10 16.0934 0 0
6:15 pm 18:15 Sunny 86 30 60 15.6 42 42 SE 3 6 30 1016 10 16.0934 0 0
6:35 pm 18:35 Sunny 85 29.5 61 16.2 45 45 SE 6 9 29.97 1015 10 16.0934 0 0
6:55 pm 18:55 Sunny 84 28.8 63 17.2 50 50 SE 5 7 29.97 1015 10 16.0934 0 0
7:15 pm 19:15 Sunny 83 28.4 64 17.9 53 53 ESE 3 6 30 1016 10 16.0934 0 0
7:35 pm 19:35 Sunny 84 28.7 64 17.9 52 52 SE 3 6 29.97 1015 10 16.0934 0 0
7:55 pm 19:55 Sunny 83 28.4 66 18.8 56 56 Calm 30 1016 10 16.0934 0 0
8:15 pm 20:15 Sunny 82 27.8 66 19 59 59 ESE 5 7 30 1016 10 16.0934 0 0
8:35 pm 20:35 Sunny 80 26.8 67 19.5 64 64 ESE 3 6 30 1016 7 11.26538 0 0
8:55 pm 20:55 Clear 77 25 68 19.9 73 73 SE 5 7 30 1016 10 16.0934 0 0
9:15 pm 21:15 Clear 75 23.8 67 19.4 76 76 ESE 5 7 30.03 1017 10 16.0934 0 0
9:35 pm 21:35 Clear 73 22.7 67 19.6 83 83 E 3 6 30.06 1018 7 11.26538 0 0
9:55 pm 21:55 Clear 75 23.7 67 19.4 77 77 SE 5 7 30.06 1018 10 16.0934 0 0
10:15 pm 22:15 Clear 74 23.4 67 19.6 79 79 SSE 6 9 30.09 1019 7 11.26538 0 0
10:35 pm 22:35 Clear 74 23.1 67 19.5 80 80 SSE 3 6 30.09 1019 10 16.0934 0 0
10:55 pm 22:55 Clear 73 22.6 65 18.3 77 77 SE 5 7 30.09 1019 10 16.0934 0 0
11:15 pm 23:15 Clear 70 21.2 65 18.5 85 85 SE 5 7 30.12 1020 10 16.0934 0 0
11:35 pm 23:35 Clear 71 21.8 64 17.9 79 79 SSE 6 9 30.06 1018 10 16.0934 0 0
11:55 pm 23:55 Clear 71 21.5 64 17.8 80 80 SSE 5 7 30.06 1018 10 16.0934 0 0

Powered by AerisWeather